Terug naar catalogus

SENTINEL 2B

ActiefWetenschapSSO
NORAD 42063·PAYLOAD·🇪🇺 EU

Gelanceerd Mar 7, 2017 vanaf Guiana Space Centre

Loading…

Volgende Passages (komende 24 uur)

TLE

VersSource: Space-Track

Epoch: Sep 14, 2026, 15:33 UTC

1 42063U 17013A   26257.64804561  .00000152  00000-0  74626-4 0  9990
2 42063  98.5721 331.1334 0001206  85.3188 274.8133 14.30814534497437

Volg SENTINEL 2B in realtime met AllMySat

Download on the App Store